Flag for Burundi Weather past 2 weeks in Muyinga, Burundi

Now
75 °F

Scattered clouds.


Feels Like: 77 °F
Forecast: 59 / 75 °F
Wind: 8 mph from Southwest

Location: Kigali Airport

Current Time: Dec 20, 2014 at 3:59:52 PM

Latest Report: Dec 20, 2014 at 3:30 PM


Visibility: N/A

Pressure: 30.09 "Hg

Humidity: 74%

Dew point: 66 °F

Location of MuyingaLocation

Historic Weather in Muyinga — Graph

°F

Muyinga temperature yesterday

Maximum temperature yesterday: 86 °F (at 2:00 PM)
Minimum temperature yesterday: 59 °F (at 5:00 AM)
Average temperature yesterday: 71 °F

Past Weeks' High & Low Weather Summary

 TemperatureHumidityPressure
High86 °F (Dec 7, 2:00 PM)100% (Dec 6, 1:30 AM)30.21 "Hg (Dec 6, 1:30 AM)
Low59 °F (Dec 19, 5:00 AM)37% (Dec 20, 12:00 PM)29.98 "Hg (Dec 7, 3:00 PM)
Average71 °F79%30.10 "Hg
* Reported Dec 5 2:00 PM — Dec 20 2:30 PM, Muyinga, Weather by CustomWeather, © 2014

Note: Actual official high and low records may vary slightly from our data, if they occured in-between our weather recording intervals... More about our weather records

Advertising

Muyinga weather history for previous 24 hours

 ConditionsComfort  
Time TempWeatherWind HumidityBarometerVisibility
2:30 PM
Dec 20
72 °FScattered clouds.9 mph83%30.09 "HgN/A
2:00 PM70 °FScattered clouds.10 mph94%30.09 "HgN/A
1:30 PM66 °FThunderstorms. Partly sunny.9 mph100%30.15 "HgN/A
1:00 PM66 °FThunderstorms. Partly sunny.15 mph94%30.15 "HgN/A
12:30 PM79 °FThunderstorms. Partly sunny.3 mph61%30.12 "HgN/A
12:00 PM79 °FPartly sunny.3 mph37%30.15 "HgN/A
11:00 AM75 °FScattered clouds.7 mph69%30.18 "HgN/A
10:30 AM75 °FScattered clouds.5 mph69%30.18 "HgN/A
9:30 AM72 °FPassing clouds.3 mph88%30.21 "HgN/A
9:00 AM72 °FPassing clouds.3 mph88%30.21 "Hg5 mi
8:30 AM70 °FPassing clouds.No wind88%30.18 "Hg5 mi
8:00 AM68 °FPassing clouds.No wind94%30.18 "HgN/A
7:30 AM64 °FPassing clouds.No wind100%30.18 "HgN/A
7:00 AM63 °FScattered clouds.No wind100%30.15 "HgN/A
6:30 AM63 °FScattered clouds.No wind100%30.15 "HgN/A
6:00 AM61 °FScattered clouds.No wind100%30.15 "HgN/A
5:30 AM63 °FPassing clouds.No wind100%30.15 "HgN/A
4:30 AM63 °FPassing clouds.No wind100%30.12 "HgN/A
4:00 AM63 °FPassing clouds.3 mph100%30.12 "HgN/A
3:30 AM63 °FPassing clouds.No wind100%30.12 "HgN/A
3:00 AM63 °FPassing clouds.No wind100%30.12 "HgN/A
2:30 AM64 °FPassing clouds.No wind100%30.12 "HgN/A
2:00 AM64 °FPassing clouds.5 mph100%30.12 "HgN/A
1:30 AM64 °FPassing clouds.No wind100%30.12 "HgN/A
1:00 AM64 °FPassing clouds.No wind100%30.12 "HgN/A
12:30 AM64 °FPassing clouds.No wind100%30.15 "HgN/A
12:00 AM64 °FPassing clouds.No wind100%30.15 "HgN/A
11:30 PM
Dec 19
64 °FPassing clouds.No wind100%30.15 "HgN/A
11:00 PM66 °FPartly cloudy.3 mph94%30.15 "HgN/A
10:30 PM66 °FPassing clouds.No wind94%30.15 "HgN/A
10:00 PM66 °FPassing clouds.3 mph94%30.15 "HgN/A
9:30 PM64 °FPassing clouds.No wind100%30.15 "HgN/A
9:00 PM64 °FPassing clouds.3 mph100%30.12 "HgN/A
8:30 PM66 °FThunderstorms. Passing clouds.6 mph100%30.12 "HgN/A
8:00 PM66 °FThunderstorms. Partly cloudy.5 mph94%30.12 "HgN/A
7:30 PM68 °FThunderstorms. Partly cloudy.14 mph78%30.12 "HgN/A
7:00 PM72 °FPartly cloudy.21 mph69%30.09 "HgN/A
6:30 PM75 °FPartly cloudy.9 mph61%30.07 "HgN/A
6:00 PM77 °FScattered clouds.9 mph57%30.04 "HgN/A
5:30 PM79 °FScattered clouds.10 mph54%30.04 "HgN/A
5:00 PM84 °FScattered clouds.7 mph45%30.01 "HgN/A
4:30 PM86 °FScattered clouds.7 mph40%30.01 "HgN/A
3:30 PM86 °FScattered clouds.6 mph40%30.01 "HgN/A
3:00 PM86 °FScattered clouds.7 mphN/A30.01 "HgN/A
Weather by CustomWeather, © 2014

See weather overviewHow to use our weather pages